Location: Unspecified
(51.2525°N, 0.0000°E)
Time: 02:39:58
(UTC+00:00)

Tiros 1 despin weight - All Passes

Search period start: 04 April 2026 00:00
Search period end: 14 April 2026 00:00
Orbit: 555 x 593 km, 48.2° (Epoch: 29 March)

Date Brightness Start Highest point End Pass type
(mag) Time Alt. Az. Time Alt. Az. Time Alt. Az.
4 Apr - 00:24:43 10° W 00:29:03 58° S 00:33:24 10° ESE night (unlit)
4 Apr - 02:05:14 10° W 02:09:16 35° SSW 02:13:18 10° SE night (unlit)
4 Apr - 03:47:11 10° WSW 03:48:57 12° SW 03:50:43 10° SSW visible
4 Apr - 21:07:14 10° SSW 21:10:44 24° SSE 21:14:15 10° E visible
4 Apr - 22:46:29 10° WSW 22:50:44 51° SSE 22:55:02 10° E night (unlit)
5 Apr - 00:26:45 10° W 00:31:04 55° S 00:35:22 10° ESE night (unlit)
5 Apr - 02:07:23 10° W 02:11:11 28° SSW 02:14:58 10° SSE night (unlit)
5 Apr - 21:08:47 10° SW 21:12:35 30° SSE 21:16:27 10° E visible
5 Apr - 22:48:26 10° WSW 22:52:44 56° S 22:57:04 10° E night (unlit)
6 Apr - 00:28:47 10° W 00:33:03 49° SSW 00:37:18 10° ESE night (unlit)
6 Apr - 02:09:37 10° W 02:13:03 22° SSW 02:16:28 10° SSE night (unlit)
6 Apr - 19:32:44 10° SSE 19:34:47 13° SE 19:36:50 10° ESE visible
6 Apr - 21:10:29 10° SW 21:14:30 37° SSE 21:18:34 10° E visible
6 Apr - 22:50:25 10° WSW 22:54:43 58° S 22:59:04 10° E visible
7 Apr - 00:30:50 10° W 00:35:00 43° SSW 00:39:11 10° SE night (unlit)
7 Apr - 02:12:01 10° WSW 02:14:51 17° SW 02:17:41 10° S night (unlit)
7 Apr - 19:33:36 10° S 19:36:33 18° SE 19:39:32 10° ESE visible
7 Apr - 21:12:16 10° SW 21:16:25 44° SSE 21:20:37 10° E visible
7 Apr - 22:52:24 10° W 22:56:43 58° S 23:01:03 10° ESE visible
8 Apr - 00:32:54 10° W 00:36:55 35° SSW 00:40:57 10° SE night (unlit)
8 Apr - 02:14:52 10° WSW 02:16:36 12° SW 02:18:21 10° SSW night (unlit)
8 Apr - 19:34:53 10° SSW 19:38:21 24° SSE 19:41:51 10° E visible
8 Apr - 21:14:08 10° WSW 21:18:22 51° SSE 21:22:38 10° E visible
8 Apr - 22:54:24 10° W 22:58:41 55° S 23:03:00 10° ESE visible
9 Apr - 00:35:01 10° W 00:38:48 28° SSW 00:42:35 10° SSE night (unlit)
9 Apr - 19:36:24 10° SW 19:40:11 30° SSE 19:44:02 10° E visible
9 Apr - 21:16:04 10° WSW 21:20:19 56° S 21:24:38 10° E visible
9 Apr - 22:56:23 10° W 23:00:38 49° SSW 23:04:54 10° ESE visible
10 Apr - 00:37:13 10° W 00:40:37 22° SSW 00:44:01 10° SSE night (unlit)
10 Apr - 18:00:21 10° SSE 18:02:21 13° SE 18:04:23 10° ESE daylight
10 Apr - 19:38:04 10° SW 19:42:04 37° SSE 19:46:06 10° E visible
10 Apr - 21:18:00 10° WSW 21:22:17 58° S 21:26:36 10° E visible
10 Apr - 22:58:24 10° W 23:02:33 42° SSW 23:06:43 10° SE visible
11 Apr - 00:39:36 10° WSW 00:42:24 17° SW 00:45:12 10° S night (unlit)
11 Apr - 18:01:10 10° S 18:04:05 18° SE 18:07:02 10° ESE daylight
11 Apr - 19:39:50 10° SW 19:43:58 44° SSE 19:48:07 10° E visible
11 Apr - 21:19:57 10° W 21:24:14 58° S 21:28:33 10° ESE visible
11 Apr - 23:00:26 10° W 23:04:26 35° SSW 23:08:27 10° SE visible
12 Apr - 00:42:26 10° WSW 00:44:07 12° SW 00:45:49 10° SSW night (unlit)
12 Apr - 18:02:25 10° SSW 18:05:51 23° SSE 18:09:20 10° E daylight
12 Apr - 19:41:40 10° WSW 19:45:52 51° SSE 19:50:07 10° E visible
12 Apr - 21:21:55 10° W 21:26:10 54° S 21:30:27 10° ESE visible
12 Apr - 23:02:31 10° W 23:06:17 28° SSW 23:10:02 10° SSE visible
13 Apr - 18:03:54 10° SW 18:07:39 30° SSE 18:11:27 10° E daylight
13 Apr - 19:43:33 10° WSW 19:47:47 56° S 19:52:04 10° E visible
13 Apr - 21:23:52 10° W 21:28:05 49° SSW 21:32:19 10° ESE visible
13 Apr - 23:04:41 10° W 23:08:04 22° SSW 23:11:27 10° SSE visible
